SCP
0 0 0 0 0 -0 0 0 0 -0 -0 -0 -0 -0 -0 0 0 0 0 -0 -0 -0 -0 -0 -0 0 0 -0 0 0 0 0 0 0 0 0 0 0 0 0 0 0 0
0 0 0 0 -0 -0 -0 -0 -0 0 0 0 -0 -0 -0 -0 0 0 0 0 0 -0 0 0 0 0 0 0 0 0 0 0 0 0 0 -0 0 0 0 0 0 0 0
0 0 0 0 -0 0 -0 -0 -0 -0 0 0 -0 -0 0 0 0 0 0 0 0 0 0 0 0 0 0 0 0 0 0 0 0 0 0 -0 -0 0 0 0 0 0 0
0 0 0 0 -0 -0 0 0 0 0 0 0 0 0 0 0 0 0 0 0 0 0 0 0 0 0 0 0 0 0 0 0 0 0 0 0 0 0 0 0 0 0 0
0 0 0 0 0 -0 0 0 0 0 0 0 0 0 0 0 0 0 0 0 0 0 0 0 0 0 0 0 0 0 0 0 0 0 0 0 0 0 0 0 0 0 0
0 0 0 0 0 0 0 0 0 0 0 0 0 0 0 0 0 0 0 0 0 0 0 0 0 0 0 0 0 0 0 0 0 0 0 0 0 0 0 0 0 0 0
0 0 0 0 0 0 0 0 0 0 0 0 0 0 0 0 0 0 0 0 0 0 0 0 0 0 0 0 0 0 0 0 0 0 0 0 0 0 0 0 0 0 0
0 0 0 0 0 0 0 0 0 0 0 0 0 0 0 0 0 0 0 0 0 0 0 0 0 0 0 0 0 0 0 0 0 0 0 0 0 0 0 0 0 0 0
0 0 0 0 0 0 0 0 0 0 0 0 0 0 0 0 0 0 0 0 0 0 0 0 0 0 0 0 0 0 0 0 0 0 0 0 0 0 0 0 0 0 0
0 0 0 0 0 0 0 0 0 0 0 0 0 0 0 0 0 0 0 0 0 0 0 0 0 0 0 0 0 0 0 0 0 0 0 0 0 0 0 0 0 0 0
0 0 0 0 0 0 0 0 0 0 0 0 0 0 0 0 0 0 0 0 0 0 0 0 0 0 0 0 0 0 0 0 0 0 0 0 0 0 0 0 0 0 0
0 0 0 0 0 0 0 0 0 0 0 0 0 0 0 0 0 0 0 0 0 0 0 0 0 0 0 0 0 0 0 0 0 0 0 0 0 0 0 0 0 0 0
0 0 0 0 0 0 0 0 0 0 0 0 0 0 0 0 0 0 0 0 0 0 0 0 0 0 0 0 0 0 0 0 0 0 0 0 0 0 0 0 0 0 0
0 0 0 0 0 0 0 0 0 0 0 0 0 0 0 0 0 0 0 0 0 0 0 0 0 0 0 0 0 0 0 0 0 0 0 0 0 0 0 0 0 0 0
0 0 0 0 0 0 0 0 0 0 0 0 0 0 0 0 0 0 0 0 0 0 0 0 0 0 0 0 0 0 0 0 0 0 0 0 0 0 0 0 0 0 0
0 0 0 0 0 0 0 0 0 0 0 0 0 0 0 0 0 0 0 0 0 0 0 0 0 0 0 0 0 0 0 0 0 0 0 0 0 0 0 0 0 0 0
0 0 0 0 0 0 0 0 0 0 0 0 0 0 0 0 0 0 0 0 0 0 0 0 0 0 0 0 0 0 0 0 0 0 0 0 0 0 0 0 0 0 0
0 0 0 0 0 0 0 0 0 0 0 0 0 0 0 0 0 0 0 0 0 0 0 0 0 0 0 0 0 0 0 0 0 0 0 0 0 0 0 0 0 0 0
0 0 0 0 0 0 0 0 0 0 0 0 0 0 0 0 0 0 0 0 0 0 0 0 0 0 0 0 0 0 0 0 0 0 0 0 0 0 0 0 0 0 0
0 0 0 0 0 0 0 0 0 0 0 0 0 0 0 0 0 0 0 0 0 0 0 0 0 0 0 0 0 0 0 0 0 0 0 0 0 0 0 0 0 0 0
0 0 0 0 0 0 0 0 0 0 0 0 0 0 0 0 0 0 0 0 0 0 0 0 0 0 -0 -0 -0 0 -0 0 0 0 0 0 0 0 0 0 0 0 0
0 0 0 0 0 0 0 0 0 0 0 0 0 0 0 0 0 0 0 0 0 0 0 0 0 0 -0 -0 -0 -0 -0 -0 0 0 0 0 0 0 0 0 0 0 0
0 0 0 0 0 0 0 0 0 0 0 0 0 0 0 0 0 0 0 0 0 0 0 0 0 0 0 -0 -0 -0 -0 -0 0 0 0 0 0 0 0 0 0 0 0
0 0 0 0 0 0 0 0 0 0 0 0 0 0 0 0 0 0 0 0 0 0 0 0 0 0 0 0 -0 0 0 0 0 0 0 0 0 0 0 0 0 0 0
0 0 0 0 0 0 0 0 0 0 0 0 0 0 0 0 0 0 0 0 0 0 0 0 0 0 0 0 0 0 0 0 0 0 0 0 0 0 0 0 0 0 0
0 0 0 0 0 0 0 0 0 0 0 0 0 0 0 0 0 0 0 0 0 0 0 0 0 0 0 0 0 0 0 0 0 0 0 0 0 0 0 0 0 0 0
Wind_Speed_500mb
18 17 17 21 22 24 23 22 23 22 22 18 17 15 14 14 15 16 16 18 16 11 13 15 14 16 16 16 18 20 20 19 19 20 19 22 28 24 15 14 14 14 14
24 20 22 26 26 25 27 29 26 23 20 18 15 10 9 10 10 9 7 4 3 8 12 14 15 14 15 17 18 18 17 15 15 16 18 20 22 19 17 9 9 9 8
33 34 28 27 26 24 20 17 12 16 15 14 12 13 12 11 7 4 1 4 8 12 15 17 18 18 17 16 16 16 15 14 12 9 15 14 18 16 14 12 5 4 5
37 36 32 28 25 19 14 12 8 6 6 10 14 14 12 9 5 1 3 6 10 13 16 17 18 18 18 18 18 15 13 13 10 6 9 6 8 13 15 12 8 4 5
36 33 33 29 26 21 14 9 7 6 6 6 5 9 8 6 3 3 6 9 11 14 16 18 18 18 18 18 17 16 15 11 9 8 7 4 6 12 12 12 11 8 5
36 29 34 31 26 20 17 11 8 8 9 9 6 8 7 6 3 5 8 11 14 18 19 20 21 20 18 17 17 17 15 15 13 13 15 11 12 12 12 11 11 9 11
36 35 28 21 18 14 11 12 11 9 9 10 8 7 5 4 4 7 11 14 17 18 20 21 21 20 19 17 15 14 13 14 17 18 22 20 22 21 19 19 19 15 10
33 31 25 21 14 14 9 8 8 12 13 10 8 6 3 5 7 10 14 17 19 20 19 19 19 20 19 19 16 14 13 13 16 17 23 24 24 26 25 24 24 23 23
25 25 23 21 18 14 11 11 9 10 11 9 6 2 3 5 9 12 14 15 16 18 19 19 18 19 19 18 18 17 15 14 14 17 21 23 23 27 27 29 30 31 31
26 23 22 20 17 15 16 15 12 10 7 5 2 2 4 7 9 11 14 15 16 16 17 17 19 19 18 18 17 19 18 17 18 19 20 22 23 24 27 28 28 31 34
23 24 24 23 21 21 18 16 15 12 8 3 1 4 7 8 11 13 15 17 18 18 18 18 18 18 19 20 19 19 19 21 21 22 24 24 26 27 28 31 32 31 32
25 25 24 25 22 22 21 17 13 8 6 3 2 5 9 12 14 14 15 16 17 19 20 20 20 20 19 20 19 19 20 20 21 22 24 25 27 29 31 32 34 36 36
31 25 23 23 22 21 18 15 11 7 3 3 7 9 11 13 14 15 15 16 17 18 19 20 20 22 22 21 22 21 20 20 20 21 22 25 26 28 31 33 34 35 37
32 27 27 25 23 21 19 15 9 5 2 5 8 10 11 14 16 16 18 19 20 20 21 21 20 20 21 21 23 21 22 23 22 22 23 25 28 30 31 34 36 37 38
24 26 28 28 26 23 19 14 10 6 5 5 8 12 15 17 19 21 21 22 22 21 22 23 22 22 22 21 22 23 24 25 25 27 28 29 31 33 35 37 38 41 41
27 25 27 31 28 24 20 15 12 9 6 7 10 14 18 22 23 22 22 22 23 25 25 25 24 24 25 27 26 28 28 29 31 31 31 32 34 37 38 41 42 43 43
34 31 28 31 31 27 23 19 15 11 9 10 12 15 18 20 19 18 18 20 22 23 23 22 22 24 26 27 29 30 30 31 31 31 33 35 34 34 35 36 42 46 44
38 36 31 31 32 31 26 21 17 14 12 12 13 17 18 16 15 17 20 22 25 24 22 21 24 27 29 33 33 32 33 32 34 32 29 30 32 32 32 35 40 42 43
32 35 31 31 32 31 27 23 19 16 15 14 16 18 17 17 18 22 26 27 24 19 18 21 26 32 35 36 38 38 39 34 26 28 25 22 25 36 45 40 39 43 46
28 30 27 26 30 31 29 24 21 19 17 16 17 18 17 19 23 27 29 27 20 18 22 26 30 33 38 42 43 42 38 25 30 21 21 32 43 37 35 43 44 47 50
27 33 31 26 25 31 28 25 22 19 18 16 15 16 19 25 26 28 25 21 18 19 25 29 32 35 37 44 51 51 40 37 21 27 53 39 31 38 41 44 52 54 49
24 22 26 24 21 26 25 21 22 18 16 14 19 19 21 27 29 27 23 20 17 20 25 28 32 35 39 45 49 44 32 34 26 55 25 40 36 40 46 52 54 48 58
22 21 19 20 17 19 23 25 21 19 18 19 22 24 29 31 30 26 24 19 18 22 25 28 31 34 38 39 42 33 19 19 69 28 51 33 38 49 49 53 55 49 53
18 23 21 21 20 20 22 22 21 20 19 19 22 28 32 33 31 28 25 22 21 23 25 28 31 32 37 40 40 37 38 39 28 39 40 63 50 56 57 53 51 50 46
14 18 24 24 23 21 19 19 20 19 18 17 21 28 32 32 29 27 26 24 24 26 27 29 31 34 36 38 40 42 44 42 40 37 60 63 72 64 63 58 54 46 41
19 16 15 14 14 13 12 13 16 19 20 22 24 29 32 34 32 28 26 27 27 28 29 31 34 36 38 40 41 43 44 46 48 41 46 69 72 73 65 56 53 49 45
Wind_Direction_500mb
159 155 152 152 149 146 139 137 135 132 134 130 130 121 120 115 119 112 107 103 102 75 39 36 27 17 13 15 15 26 32 34 40 46 47 44 37 37 51 64 85 85 85
156 144 147 144 144 143 145 143 140 135 142 146 145 154 136 144 134 136 129 106 22 1 359 2 359 357 356 358 0 7 18 31 41 49 38 29 29 22 39 69 95 109 95
168 150 156 149 147 147 151 154 157 157 155 155 149 137 135 128 130 138 71 349 342 343 342 341 345 345 344 346 349 353 359 12 24 60 46 16 19 2 20 38 79 152 159
150 159 161 163 165 167 178 185 209 243 230 156 148 139 134 131 121 105 339 336 333 334 335 336 338 340 340 339 339 339 339 345 354 1 44 12 337 342 351 0 23 28 234
172 178 168 174 178 172 175 195 206 206 199 183 160 156 142 140 107 344 329 332 331 331 333 331 328 325 326 325 325 326 327 329 319 308 347 305 274 293 312 329 348 350 335
173 174 164 169 186 176 180 212 222 211 217 202 187 170 137 117 64 347 332 329 330 331 328 327 328 327 322 318 314 311 307 305 295 284 284 289 289 296 312 313 314 333 331
182 188 187 174 181 186 200 218 225 201 190 208 159 117 102 61 2 339 336 334 334 330 333 333 332 331 331 331 327 317 306 290 281 283 283 276 284 291 294 293 289 281 282
200 202 203 211 211 205 207 218 219 181 176 162 128 101 61 25 1 347 336 333 334 334 336 335 335 335 337 339 336 329 318 307 295 288 280 281 285 287 287 282 281 279 276
202 203 203 211 209 200 179 149 159 150 142 134 131 100 22 357 342 338 336 337 334 330 334 335 333 335 335 336 338 332 333 330 313 301 295 294 291 292 291 286 280 276 272
203 210 209 200 188 170 168 163 176 168 162 163 124 4 2 348 340 338 330 331 331 333 333 333 332 334 330 331 331 327 328 325 318 314 308 304 306 302 300 294 288 283 276
186 191 194 190 180 172 177 174 183 170 158 159 321 330 340 342 336 335 330 330 332 330 331 330 327 325 325 324 324 320 318 316 312 310 305 305 303 301 299 298 296 291 285
202 187 185 183 183 184 184 184 178 171 171 186 303 339 339 331 331 333 331 329 331 328 328 329 328 324 323 321 318 316 314 311 309 307 304 304 304 302 299 297 296 294 292
202 203 202 192 190 188 187 187 192 186 205 306 328 333 333 328 329 329 329 329 331 330 328 328 326 324 324 324 323 323 320 319 314 311 309 308 304 301 301 299 297 294 293
208 209 207 202 201 198 199 197 199 215 271 313 326 331 333 330 328 328 326 324 327 328 327 326 326 325 325 326 325 328 326 325 323 319 315 309 307 305 303 303 300 299 294
224 219 217 208 206 204 208 210 211 230 256 306 322 323 324 323 320 321 322 324 330 328 328 327 329 330 330 330 330 329 329 326 321 318 313 308 304 302 302 300 299 296 295
243 239 228 216 209 210 213 217 225 230 256 290 307 317 320 318 315 316 320 324 327 328 332 332 335 336 336 336 335 333 332 326 322 318 315 311 306 305 302 299 299 294 293
238 247 235 220 213 212 215 221 226 235 260 290 305 315 318 316 314 316 320 323 327 328 331 333 333 335 333 331 333 332 328 324 321 317 313 308 308 308 307 307 300 302 303
238 244 238 222 214 213 216 222 230 244 266 286 303 316 320 318 322 323 323 325 326 327 329 334 335 336 336 334 334 333 331 326 320 315 311 313 314 314 314 313 313 309 307
242 240 235 225 219 216 217 222 232 248 265 282 299 314 318 326 327 323 323 323 323 324 330 336 340 336 337 337 337 339 334 329 325 316 319 327 324 316 311 312 312 310 308
233 238 238 234 222 215 216 222 236 247 262 278 298 314 318 324 322 320 320 323 328 332 338 341 339 340 338 338 339 341 338 334 337 342 334 326 314 309 313 316 310 311 311
213 218 228 237 230 221 219 227 241 252 261 276 300 314 320 323 321 318 318 319 324 332 336 338 339 340 340 341 342 344 350 341 344 337 321 312 310 310 308 308 311 310 307
202 207 220 240 243 226 222 232 243 258 269 290 308 310 318 323 318 313 312 311 315 324 330 334 335 339 342 344 347 349 343 339 331 327 327 316 312 308 310 308 308 308 306
181 193 211 235 243 232 228 235 249 261 274 290 300 311 319 320 316 308 303 300 306 318 326 329 332 335 336 342 344 346 341 317 325 323 315 311 311 304 306 308 308 309 307
172 189 191 209 232 236 236 246 253 257 262 281 299 314 319 318 315 310 302 296 302 310 318 323 326 328 331 333 336 333 327 318 318 315 309 310 313 315 317 320 321 319 315
157 183 199 215 231 237 242 247 247 247 261 274 295 309 315 314 309 303 295 290 296 303 312 317 320 321 322 325 327 324 322 316 309 290 299 310 312 320 325 329 328 328 329
118 142 164 183 198 214 231 237 243 254 258 272 291 305 311 313 308 300 293 289 292 297 302 308 312 315 317 319 321 320 317 311 307 296 288 304 312 320 326 325 330 331 331
Wind_Speed_850mb
18 17 17 21 22 24 23 22 23 22 22 18 17 15 14 14 15 16 16 18 16 11 13 15 14 16 16 16 18 20 20 19 19 20 19 22 28 24 15 14 14 14 14
24 20 22 26 26 25 27 29 26 23 20 18 15 10 9 10 10 9 7 4 3 8 12 14 15 14 15 17 18 18 17 15 15 16 18 20 22 19 17 9 9 9 8
33 34 28 27 26 24 20 17 12 16 15 14 12 13 12 11 7 4 1 4 8 12 15 17 18 18 17 16 16 16 15 14 12 9 15 14 18 16 14 12 5 4 5
37 36 32 28 25 19 14 12 8 6 6 10 14 14 12 9 5 1 3 6 10 13 16 17 18 18 18 18 18 15 13 13 10 6 9 6 8 13 15 12 8 4 5
36 33 33 29 26 21 14 9 7 6 6 6 5 9 8 6 3 3 6 9 11 14 16 18 18 18 18 18 17 16 15 11 9 8 7 4 6 12 12 12 11 8 5
36 29 34 31 26 20 17 11 8 8 9 9 6 8 7 6 3 5 8 11 14 18 19 20 21 20 18 17 17 17 15 15 13 13 15 11 12 12 12 11 11 9 11
36 35 28 21 18 14 11 12 11 9 9 10 8 7 5 4 4 7 11 14 17 18 20 21 21 20 19 17 15 14 13 14 17 18 22 20 22 21 19 19 19 15 10
33 31 25 21 14 14 9 8 8 12 13 10 8 6 3 5 7 10 14 17 19 20 19 19 19 20 19 19 16 14 13 13 16 17 23 24 24 26 25 24 24 23 23
25 25 23 21 18 14 11 11 9 10 11 9 6 2 3 5 9 12 14 15 16 18 19 19 18 19 19 18 18 17 15 14 14 17 21 23 23 27 27 29 30 31 31
26 23 22 20 17 15 16 15 12 10 7 5 2 2 4 7 9 11 14 15 16 16 17 17 19 19 18 18 17 19 18 17 18 19 20 22 23 24 27 28 28 31 34
23 24 24 23 21 21 18 16 15 12 8 3 1 4 7 8 11 13 15 17 18 18 18 18 18 18 19 20 19 19 19 21 21 22 24 24 26 27 28 31 32 31 32
25 25 24 25 22 22 21 17 13 8 6 3 2 5 9 12 14 14 15 16 17 19 20 20 20 20 19 20 19 19 20 20 21 22 24 25 27 29 31 32 34 36 36
31 25 23 23 22 21 18 15 11 7 3 3 7 9 11 13 14 15 15 16 17 18 19 20 20 22 22 21 22 21 20 20 20 21 22 25 26 28 31 33 34 35 37
32 27 27 25 23 21 19 15 9 5 2 5 8 10 11 14 16 16 18 19 20 20 21 21 20 20 21 21 23 21 22 23 22 22 23 25 28 30 31 34 36 37 38
24 26 28 28 26 23 19 14 10 6 5 5 8 12 15 17 19 21 21 22 22 21 22 23 22 22 22 21 22 23 24 25 25 27 28 29 31 33 35 37 38 41 41
27 25 27 31 28 24 20 15 12 9 6 7 10 14 18 22 23 22 22 22 23 25 25 25 24 24 25 27 26 28 28 29 31 31 31 32 34 37 38 41 42 43 43
34 31 28 31 31 27 23 19 15 11 9 10 12 15 18 20 19 18 18 20 22 23 23 22 22 24 26 27 29 30 30 31 31 31 33 35 34 34 35 36 42 46 44
38 36 31 31 32 31 26 21 17 14 12 12 13 17 18 16 15 17 20 22 25 24 22 21 24 27 29 33 33 32 33 32 34 32 29 30 32 32 32 35 40 42 43
32 35 31 31 32 31 27 23 19 16 15 14 16 18 17 17 18 22 26 27 24 19 18 21 26 32 35 36 38 38 39 34 26 28 25 22 25 36 45 40 39 43 46
28 30 27 26 30 31 29 24 21 19 17 16 17 18 17 19 23 27 29 27 20 18 22 26 30 33 38 42 43 42 38 25 30 21 21 32 43 37 35 43 44 47 50
27 33 31 26 25 31 28 25 22 19 18 16 15 16 19 25 26 28 25 21 18 19 25 29 32 35 37 44 51 51 40 37 21 27 53 39 31 38 41 44 52 54 49
24 22 26 24 21 26 25 21 22 18 16 14 19 19 21 27 29 27 23 20 17 20 25 28 32 35 39 45 49 44 32 34 26 55 25 40 36 40 46 52 54 48 58
22 21 19 20 17 19 23 25 21 19 18 19 22 24 29 31 30 26 24 19 18 22 25 28 31 34 38 39 42 33 19 19 69 28 51 33 38 49 49 53 55 49 53
18 23 21 21 20 20 22 22 21 20 19 19 22 28 32 33 31 28 25 22 21 23 25 28 31 32 37 40 40 37 38 39 28 39 40 63 50 56 57 53 51 50 46
14 18 24 24 23 21 19 19 20 19 18 17 21 28 32 32 29 27 26 24 24 26 27 29 31 34 36 38 40 42 44 42 40 37 60 63 72 64 63 58 54 46 41
19 16 15 14 14 13 12 13 16 19 20 22 24 29 32 34 32 28 26 27 27 28 29 31 34 36 38 40 41 43 44 46 48 41 46 69 72 73 65 56 53 49 45
Wind_Direction_850mb
159 155 152 152 149 146 139 137 135 132 134 130 130 121 120 115 119 112 107 103 102 75 39 36 27 17 13 15 15 26 32 34 40 46 47 44 37 37 51 64 85 85 85
156 144 147 144 144 143 145 143 140 135 142 146 145 154 136 144 134 136 129 106 22 1 359 2 359 357 356 358 0 7 18 31 41 49 38 29 29 22 39 69 95 109 95
168 150 156 149 147 147 151 154 157 157 155 155 149 137 135 128 130 138 71 349 342 343 342 341 345 345 344 346 349 353 359 12 24 60 46 16 19 2 20 38 79 152 159
150 159 161 163 165 167 178 185 209 243 230 156 148 139 134 131 121 105 339 336 333 334 335 336 338 340 340 339 339 339 339 345 354 1 44 12 337 342 351 0 23 28 234
172 178 168 174 178 172 175 195 206 206 199 183 160 156 142 140 107 344 329 332 331 331 333 331 328 325 326 325 325 326 327 329 319 308 347 305 274 293 312 329 348 350 335
173 174 164 169 186 176 180 212 222 211 217 202 187 170 137 117 64 347 332 329 330 331 328 327 328 327 322 318 314 311 307 305 295 284 284 289 289 296 312 313 314 333 331
182 188 187 174 181 186 200 218 225 201 190 208 159 117 102 61 2 339 336 334 334 330 333 333 332 331 331 331 327 317 306 290 281 283 283 276 284 291 294 293 289 281 282
200 202 203 211 211 205 207 218 219 181 176 162 128 101 61 25 1 347 336 333 334 334 336 335 335 335 337 339 336 329 318 307 295 288 280 281 285 287 287 282 281 279 276
202 203 203 211 209 200 179 149 159 150 142 134 131 100 22 357 342 338 336 337 334 330 334 335 333 335 335 336 338 332 333 330 313 301 295 294 291 292 291 286 280 276 272
203 210 209 200 188 170 168 163 176 168 162 163 124 4 2 348 340 338 330 331 331 333 333 333 332 334 330 331 331 327 328 325 318 314 308 304 306 302 300 294 288 283 276
186 191 194 190 180 172 177 174 183 170 158 159 321 330 340 342 336 335 330 330 332 330 331 330 327 325 325 324 324 320 318 316 312 310 305 305 303 301 299 298 296 291 285
202 187 185 183 183 184 184 184 178 171 171 186 303 339 339 331 331 333 331 329 331 328 328 329 328 324 323 321 318 316 314 311 309 307 304 304 304 302 299 297 296 294 292
202 203 202 192 190 188 187 187 192 186 205 306 328 333 333 328 329 329 329 329 331 330 328 328 326 324 324 324 323 323 320 319 314 311 309 308 304 301 301 299 297 294 293
208 209 207 202 201 198 199 197 199 215 271 313 326 331 333 330 328 328 326 324 327 328 327 326 326 325 325 326 325 328 326 325 323 319 315 309 307 305 303 303 300 299 294
224 219 217 208 206 204 208 210 211 230 256 306 322 323 324 323 320 321 322 324 330 328 328 327 329 330 330 330 330 329 329 326 321 318 313 308 304 302 302 300 299 296 295
243 239 228 216 209 210 213 217 225 230 256 290 307 317 320 318 315 316 320 324 327 328 332 332 335 336 336 336 335 333 332 326 322 318 315 311 306 305 302 299 299 294 293
238 247 235 220 213 212 215 221 226 235 260 290 305 315 318 316 314 316 320 323 327 328 331 333 333 335 333 331 333 332 328 324 321 317 313 308 308 308 307 307 300 302 303
238 244 238 222 214 213 216 222 230 244 266 286 303 316 320 318 322 323 323 325 326 327 329 334 335 336 336 334 334 333 331 326 320 315 311 313 314 314 314 313 313 309 307
242 240 235 225 219 216 217 222 232 248 265 282 299 314 318 326 327 323 323 323 323 324 330 336 340 336 337 337 337 339 334 329 325 316 319 327 324 316 311 312 312 310 308
233 238 238 234 222 215 216 222 236 247 262 278 298 314 318 324 322 320 320 323 328 332 338 341 339 340 338 338 339 341 338 334 337 342 334 326 314 309 313 316 310 311 311
213 218 228 237 230 221 219 227 241 252 261 276 300 314 320 323 321 318 318 319 324 332 336 338 339 340 340 341 342 344 350 341 344 337 321 312 310 310 308 308 311 310 307
202 207 220 240 243 226 222 232 243 258 269 290 308 310 318 323 318 313 312 311 315 324 330 334 335 339 342 344 347 349 343 339 331 327 327 316 312 308 310 308 308 308 306
181 193 211 235 243 232 228 235 249 261 274 290 300 311 319 320 316 308 303 300 306 318 326 329 332 335 336 342 344 346 341 317 325 323 315 311 311 304 306 308 308 309 307
172 189 191 209 232 236 236 246 253 257 262 281 299 314 319 318 315 310 302 296 302 310 318 323 326 328 331 333 336 333 327 318 318 315 309 310 313 315 317 320 321 319 315
157 183 199 215 231 237 242 247 247 247 261 274 295 309 315 314 309 303 295 290 296 303 312 317 320 321 322 325 327 324 322 316 309 290 299 310 312 320 325 329 328 328 329
118 142 164 183 198 214 231 237 243 254 258 272 291 305 311 313 308 300 293 289 292 297 302 308 312 315 317 319 321 320 317 311 307 296 288 304 312 320 326 325 330 331 331